This is the latest recevied weather packets stored in our database for station/object W5CRT. If no packets are shown the sender has not sent any weather packets the latest 10 day(s).
| Time | Temp. | Humidity | Pressure | Rain* | Wind** | Luminosity | Snow |
|---|---|---|---|---|---|---|---|
| 1777502729 | 16.67° C | 82% | 1011.4 hPa | 0 mm | - | 72 W/m² | - |
| 1777502426 | 16.67° C | 83% | 1011.4 hPa | 0 mm | - | 66 W/m² | - |
| 1777502123 | 16.67° C | 83% | 1011.7 hPa | 0 mm | - | 75 W/m² | - |
| 1777501821 | 16.67° C | 83% | 1012.1 hPa | 0 mm | - | 39 W/m² | - |
| 1777501517 | 17.22° C | 82% | 1012 hPa | 0 mm | - | 44 W/m² | - |
| 1777501214 | 17.78° C | 80% | 1011.2 hPa | 0 mm | - | 101 W/m² | - |
| 1777500913 | 17.78° C | 80% | 1010.4 hPa | 0 mm | - | 212 W/m² | - |
| 1777500609 | 17.78° C | 81% | 1009.8 hPa | 0 mm | - | 283 W/m² | - |
| 1777500306 | 17.78° C | 81% | 1009.9 hPa | 0 mm | - | 293 W/m² | - |
| 1777500003 | 17.78° C | 80% | 1010.2 hPa | 0 mm | - | 283 W/m² | - |
| 1777499699 | 17.78° C | 81% | 1010.5 hPa | 0 mm | - | 281 W/m² | - |
| 1777499396 | 17.22° C | 80% | 1010.2 hPa | 0 mm | - | 318 W/m² | - |
| 1777499095 | 17.22° C | 82% | 1010.3 hPa | 0 mm | - | 364 W/m² | - |
| 1777498790 | 17.22° C | 81% | 1010.7 hPa | 0 mm | - | 312 W/m² | - |
| 1777498487 | 17.22° C | 81% | 1010.9 hPa | 0 mm | - | 284 W/m² | - |
| 1777498183 | 17.22° C | 82% | 1010.6 hPa | 0 mm | - | 344 W/m² | - |
| 1777497881 | 17.22° C | 81% | 1010.8 hPa | 0 mm | - | 389 W/m² | - |
| 1777497577 | 17.78° C | 81% | 1010.9 hPa | 0 mm | - | 364 W/m² | - |
| 1777497273 | 17.78° C | 80% | 1011.1 hPa | 0 mm | - | 585 W/m² | - |
| 1777496970 | 17.22° C | 81% | 1011 hPa | 0 mm | - | 645 W/m² | - |
| 1777496667 | 17.78° C | 82% | 1010.8 hPa | 0 mm | - | 451 W/m² | - |
| 1777496363 | 17.22° C | 84% | 1011.1 hPa | 0 mm | - | 359 W/m² | - |
| 1777496060 | 17.22° C | 83% | 1010.9 hPa | 0 mm | - | 350 W/m² | - |
| 1777495755 | 17.22° C | 84% | 1011.2 hPa | 0 mm | - | 359 W/m² | - |
| 1777495452 | 17.22° C | 84% | 1011.5 hPa | 0 mm | - | 307 W/m² | - |
* Rain latest hour (hover to see other rain measurements)
** Current wind speed in m/s (hover to see current wind gust speed)